Back to catalog

COSMOS 2499 DEB

AlivePO
NORAD 60609·DEBRIS·🇷🇺 Russia

Launched May 23, 2014 from Plesetsk Cosmodrome

Loading…

Next Passes (next 24 hours)

TLE

FreshSource: Space-Track

Epoch: Sep 12, 2026, 06:44 UTC

1 60609U 14028BV  26255.28069366  .00006307  00000-0  80208-2 0  9992
2 60609  82.2554  99.6072 0345950 269.2072  86.9419 13.40975951162107

Track COSMOS 2499 DEB in real time with AllMySat

Download on the App Store